[[{"header":{"parameterUnit":"m.s-1","parameterCategory":1,"la1":30.2991,"la2":30.254,"lo1":-89.0895,"lo2":-89.0444,"dy":0.0017,"dx":0.0017,"nx":28,"ny":28,"refTime":"2024-12-31T03:00:00:Z","depth":0,"parameterNumber":2,"parameterNumberName":"U-component_of_WINDS"},"data":[0,0,0,0,0,0,0,0,0,0,0,0,0,0,0,0,0,0,0,0,0,0,0,0,0,0,0,0,0,0,0,0,0,0,0,0,0,0,0,0,0,0,0,0,0,0,0,0,0,0,0,0,0,0,0,0,0,0,-0.5689,-0.5689,0,-0.5684,-0.5684,-0.5683,-0.5682,-0.5682,-0.5682,-0.5682,-0.5674,-0.5674,-0.5674,0,0,0,0,0,0,0,0,0,0,0,0,0,-0.5695,-0.5695,-0.5689,-0.5689,-0.5689,-0.5684,-0.5684,-0.5683,-0.5682,-0.5682,-0.5682,-0.5682,-0.5674,-0.5674,-0.5674,0,0,0,0,0,0,0,0,0,0,0,0,0,-0.5691,-0.5695,-0.5689,-0.5688,-0.5688,-0.5684,-0.5684,-0.5683,-0.5682,-0.5682,-0.5682,-0.5682,-0.5674,-0.5674,-0.5674,-0.567,0,0,-0.5672,-0.5672,0,0,0,0,0,0,0,0,-0.5691,-0.5691,-0.5688,-0.5688,-0.5688,-0.5684,-0.5683,-0.5679,-0.5682,-0.5684,-0.5682,-0.5682,-0.5677,-0.5676,-0.5675,-0.567,-0.5669,-0.5672,-0.5672,-0.5672,-0.5672,0,0,0,0,0,0,0,-0.5692,-0.5691,-0.5687,-0.5688,-0.5688,-0.5686,-0.5686,-0.5682,-0.568,-0.5684,-0.5684,-0.5683,-0.5677,-0.5676,-0.5675,-0.5669,-0.5672,-0.5672,-0.5672,-0.5672,-0.5657,-0.5657,0,0,0,0,0,0,-0.5693,-0.5692,-0.5687,-0.5687,-0.569,-0.5686,-0.5686,-0.5685,-0.568,-0.568,-0.5683,-0.5683,-0.5676,-0.5675,-0.5675,-0.5668,-0.5672,-0.5672,-0.5671,-0.5657,-0.5657,-0.5657,0,0,0,0,0,0,-0.5693,-0.5692,-0.5687,-0.5689,-0.5688,-0.5686,-0.5685,-0.5685,-0.5683,-0.568,-0.5679,-0.5682,-0.5676,-0.5675,-0.5671,-0.5668,-0.5671,-0.5671,-0.5657,-0.5657,-0.5657,-0.5657,0,0,0,0,0,0,-0.5693,-0.5692,-0.5692,-0.5689,-0.5688,-0.5685,-0.5685,-0.5685,-0.5683,-0.5683,-0.5679,-0.5678,-0.5676,-0.5671,-0.567,-0.5668,-0.5671,-0.5657,-0.5657,-0.5657,-0.5657,-0.5656,-0.5656,0,0,0,0,0,-0.5693,-0.5692,-0.5692,-0.5692,-0.5688,-0.5685,-0.5684,-0.5682,-0.5683,-0.5682,-0.5679,-0.5678,-0.5669,-0.5671,-0.567,-0.5667,-0.5658,-0.5657,-0.5657,-0.5657,-0.5656,-0.5656,0,0,0,0,0,0,-0.5695,-0.5692,-0.5692,-0.569,-0.5688,-0.5684,-0.5683,-0.5682,-0.5679,-0.5679,-0.5676,-0.5675,-0.567,-0.5668,-0.5671,-0.5661,-0.5663,-0.5662,-0.5663,-0.5663,-0.5662,-0.5663,-0.567,0,0,0,0,0,-0.5695,-0.5694,-0.5691,-0.569,-0.5688,-0.5686,-0.5684,-0.5683,-0.568,-0.5679,-0.5676,-0.5672,-0.5668,-0.5665,-0.5661,-0.5656,-0.5654,-0.5654,-0.5653,-0.5653,-0.5652,-0.5647,-0.5646,-0.5656,-0.5656,-0.5656,0,0,-0.5696,-0.5694,-0.5693,-0.569,-0.5688,-0.5685,-0.5685,-0.5682,-0.568,-0.5678,-0.5673,-0.5671,-0.5666,-0.5661,-0.5658,-0.5659,-0.5649,-0.5652,-0.5652,-0.5652,-0.5646,-0.5645,-0.5645,-0.5655,-0.5655,-0.5655,0,0,-0.5695,-0.5694,-0.5692,-0.569,-0.5686,-0.5684,-0.5684,-0.568,-0.5678,-0.5673,-0.5671,-0.5667,-0.5661,-0.5657,-0.5654,-0.5649,-0.5647,-0.5648,-0.5645,-0.564,-0.5639,-0.5639,-0.5635,-0.5634,-0.5647,-0.5647,-0.5647,0,-0.5696,-0.5692,-0.5691,-0.5688,-0.5685,-0.5684,-0.5681,-0.5678,-0.5673,-0.5671,-0.5672,-0.5662,-0.5659,-0.5651,-0.565,-0.5648,-0.5645,-0.5648,-0.564,-0.5639,-0.5638,-0.5635,-0.5633,-0.5647,-0.5647,-0.5647,-0.5647,0,-0.5692,-0.569,-0.5688,-0.5684,-0.5681,-0.5678,-0.5674,-0.5672,-0.567,-0.5667,-0.5661,-0.5657,-0.5651,-0.5649,-0.5648,-0.564,-0.564,-0.5641,-0.5642,-0.5637,-0.5634,-0.5632,-0.5647,-0.5647,-0.5647,-0.5647,0,0,-0.5694,-0.5687,-0.5687,-0.5683,-0.5678,-0.5676,-0.5671,-0.5666,-0.5662,-0.5659,-0.5654,-0.5647,-0.5646,-0.5643,-0.5641,-0.5636,-0.5629,-0.5636,-0.5636,-0.5634,-0.5618,-0.5618,-0.5616,-0.5628,-0.5628,-0.5628,-0.5618,0,-0.5691,-0.5685,-0.5682,-0.5676,-0.5672,-0.5669,-0.5665,-0.566,-0.5657,-0.5652,-0.5648,-0.5643,-0.5643,-0.5641,-0.5636,-0.5631,-0.5626,-0.5632,-0.5622,-0.5621,-0.5622,-0.5615,-0.5615,-0.5606,-0.5617,-0.5617,-0.5616,0,-0.5688,-0.5684,-0.5678,-0.5671,-0.5669,-0.5666,-0.5659,-0.5655,-0.5649,-0.5646,-0.5641,-0.5639,-0.5632,-0.5633,-0.5622,-0.5626,-0.5622,-0.5618,-0.5618,-0.5616,-0.5618,-0.5611,-0.5603,-0.5601,-0.5615,-0.5615,-0.5615,0,-0.5688,-0.5681,-0.5675,-0.5673,-0.5666,-0.5663,-0.5659,-0.5653,-0.5649,-0.5643,-0.564,-0.5632,-0.5628,-0.5622,-0.5616,-0.5618,-0.5605,-0.5607,-0.5601,-0.5601,-0.5598,-0.5598,-0.5588,-0.5597,-0.5597,-0.5597,-0.5597,0,-0.5685,-0.5681,-0.5675,-0.5672,-0.5666,-0.5662,-0.5655,-0.5652,-0.5646,-0.564,-0.5637,-0.5631,-0.5625,-0.5618,-0.5613,-0.5604,-0.5602,-0.5598,-0.5597,-0.5598,-0.5599,-0.5595,-0.5595,-0.5597,-0.5597,-0.5597,-0.5597,0,-0.5685,-0.5681,-0.5674,-0.5667,-0.5665,-0.5661,-0.5654,-0.5649,-0.5645,-0.5637,-0.5635,-0.5628,-0.5619,-0.5613,-0.5602,-0.5599,-0.5588,-0.5587,-0.559,-0.5589,-0.5583,-0.5583,-0.5569,-0.5566,-0.5579,-0.5578,-0.5578,0,-0.5683,-0.5679,-0.5671,-0.5668,-0.5664,-0.5658,-0.5654,-0.5649,-0.5644,-0.5635,-0.5631,-0.5622,-0.5614,-0.56,-0.5593,-0.5583,-0.5582,-0.5577,-0.558,-0.558,-0.5579,-0.5579,-0.5578,-0.5576,-0.5576,-0.5576,-0.5576,0,-0.568,-0.5677,-0.5672,-0.5664,-0.5659,-0.5653,-0.5647,-0.5644,-0.5637,-0.5631,-0.5622,-0.5617,-0.5604,-0.5594,-0.5584,-0.5578,-0.5575,-0.5575,-0.5573,-0.5574,-0.5575,-0.5572,-0.5587,-0.5576,-0.5576,-0.5576,-0.5576,-0.5576,-0.5677,-0.5673,-0.5666,-0.5659,-0.5654,-0.5648,-0.5642,-0.5637,-0.563,-0.562,-0.5617,-0.5607,-0.5597,-0.5583,-0.5577,-0.5567,-0.5568,-0.5565,-0.5564,-0.5564,-0.5563,-0.5577,-0.5566,-0.5566,-0.5566,-0.5566,-0.5566,0,-0.5673,-0.5668,-0.5661,-0.5652,-0.5646,-0.5644,-0.5637,-0.5631,-0.5622,-0.5615,-0.5607,-0.5595,-0.5585,-0.5576,-0.5565,-0.5559,-0.5557,-0.5556,-0.5556,-0.5554,-0.5564,-0.5566,-0.5557,-0.5557,-0.5557,-0.5557,-0.5557,-0.5557,-0.567,-0.5662,-0.5658,-0.5646,-0.5641,-0.5632,-0.5627,-0.562,-0.5614,-0.5601,-0.5592,-0.5587,-0.5577,-0.5565,-0.5555,-0.5552,-0.5547,-0.5546,-0.5543,-0.5553,-0.5554,-0.5554,-0.5556,-0.5546,-0.5546,-0.5534,-0.5534,-0.5534]},{"header":{"parameterUnit":"m.s-1","parameterCategory":1,"la1":30.2991,"la2":30.254,"lo1":-89.0895,"lo2":-89.0444,"dy":0.0017,"dx":0.0017,"nx":28,"ny":28,"refTime":"2024-12-31T03:00:00:Z","depth":0,"parameterNumber":3,"parameterNumberName":"V-component_of_WINDS"},"data":[0,0,0,0,0,0,0,0,0,0,0,0,0,0,0,0,0,0,0,0,0,0,0,0,0,0,0,0,0,0,0,0,0,0,0,0,0,0,0,0,0,0,0,0,0,0,0,0,0,0,0,0,0,0,0,0,0,0,3.7577,3.7576,0,3.755,3.755,3.7549,3.7501,3.75,3.7499,3.7498,3.7469,3.747,3.747,0,0,0,0,0,0,0,0,0,0,0,0,0,3.7586,3.7586,3.7577,3.7576,3.7576,3.755,3.755,3.7549,3.7501,3.75,3.7499,3.7497,3.7469,3.747,3.747,0,0,0,0,0,0,0,0,0,0,0,0,0,3.7573,3.7586,3.7577,3.7549,3.7546,3.755,3.755,3.7549,3.7501,3.75,3.7498,3.7497,3.7469,3.747,3.747,3.7499,0,0,3.747,3.747,0,0,0,0,0,0,0,0,3.7574,3.7573,3.7553,3.7551,3.7548,3.7527,3.7542,3.7532,3.7501,3.7518,3.7498,3.7496,3.749,3.7488,3.7486,3.7497,3.7496,3.747,3.747,3.747,3.747,0,0,0,0,0,0,0,3.7575,3.7573,3.7566,3.7553,3.755,3.7538,3.7534,3.754,3.7512,3.7517,3.7513,3.751,3.7488,3.7486,3.7485,3.7496,3.747,3.747,3.747,3.7471,3.7531,3.7532,0,0,0,0,0,0,3.758,3.7574,3.7567,3.7565,3.7557,3.7539,3.7535,3.7535,3.7512,3.7507,3.7512,3.7508,3.7487,3.7485,3.7484,3.7517,3.747,3.7471,3.7471,3.7529,3.7531,3.7533,0,0,0,0,0,0,3.758,3.7579,3.7568,3.7569,3.7567,3.754,3.7541,3.7535,3.7533,3.7508,3.7503,3.7515,3.7485,3.7484,3.7496,3.7516,3.7471,3.7471,3.7528,3.753,3.7532,3.7584,0,0,0,0,0,0,3.7581,3.758,3.7591,3.757,3.7567,3.7581,3.7542,3.7536,3.7534,3.7529,3.751,3.7505,3.7484,3.7496,3.7496,3.7515,3.7471,3.7526,3.7529,3.7531,3.7581,3.7588,3.7594,0,0,0,0,0,3.7581,3.7606,3.7591,3.7591,3.758,3.7582,3.758,3.7555,3.7536,3.7546,3.753,3.7506,3.7513,3.7497,3.7497,3.7517,3.7524,3.7528,3.7531,3.7578,3.7587,3.7594,0,0,0,0,0,0,3.7629,3.7602,3.7586,3.7605,3.7596,3.7574,3.7586,3.7565,3.7562,3.7557,3.7527,3.7523,3.7539,3.7529,3.7512,3.7544,3.7515,3.7519,3.7551,3.7559,3.7566,3.7568,3.7471,0,0,0,0,0,3.7642,3.7646,3.7622,3.7641,3.7638,3.7613,3.7613,3.7595,3.7584,3.758,3.7565,3.7556,3.7556,3.7557,3.7555,3.7579,3.7574,3.7592,3.7599,3.7605,3.7608,3.7622,3.763,3.7544,3.7544,3.7544,0,0,3.7668,3.7654,3.7659,3.7651,3.7642,3.7647,3.761,3.7617,3.7621,3.7581,3.7592,3.7581,3.7568,3.7587,3.7594,3.7578,3.7631,3.7609,3.7614,3.7614,3.7626,3.7634,3.7641,3.7546,3.7546,3.7545,0,0,3.772,3.7709,3.7724,3.7716,3.7704,3.7687,3.7691,3.7672,3.7663,3.7674,3.7645,3.7648,3.7649,3.7642,3.7638,3.7689,3.7666,3.7689,3.7725,3.7738,3.7745,3.7751,3.777,3.7777,3.7692,3.7693,3.7693,0,3.7754,3.7761,3.7734,3.7744,3.7742,3.7707,3.7722,3.7716,3.7703,3.7703,3.7686,3.7687,3.7676,3.7693,3.7705,3.7703,3.7707,3.7691,3.7746,3.7752,3.7757,3.7775,3.7782,3.7695,3.7695,3.7695,3.7695,0,3.7805,3.781,3.7824,3.7814,3.7813,3.7825,3.7801,3.7803,3.7785,3.7771,3.7783,3.7769,3.7765,3.7767,3.7749,3.7782,3.7773,3.7752,3.7722,3.7768,3.7785,3.7791,3.77,3.7699,3.7698,3.7697,0,0,3.7885,3.7861,3.7867,3.7862,3.7846,3.785,3.7861,3.7858,3.7861,3.7853,3.7863,3.7865,3.7845,3.7841,3.7823,3.7834,3.7877,3.7811,3.781,3.7825,3.7914,3.7931,3.7939,3.7862,3.7863,3.7864,3.7915,0,3.7934,3.7952,3.7929,3.7952,3.7957,3.7925,3.7935,3.7926,3.7913,3.7916,3.7901,3.7904,3.7877,3.7875,3.7884,3.7869,3.7894,3.7865,3.7871,3.7871,3.7876,3.7947,3.7965,3.8014,3.7921,3.7922,3.7923,0,3.7992,3.7989,3.8013,3.7997,3.7998,3.8008,3.8004,3.8006,3.7996,3.7986,3.7983,3.7961,3.7971,3.7942,3.7956,3.7937,3.7938,3.7931,3.7932,3.7933,3.7901,3.7951,3.8029,3.8037,3.7933,3.7932,3.7931,0,3.8051,3.8052,3.8067,3.8064,3.8045,3.8053,3.8045,3.8034,3.8034,3.803,3.803,3.8027,3.8026,3.8025,3.8003,3.7984,3.8021,3.7989,3.8013,3.8014,3.8023,3.8023,3.8104,3.8022,3.8022,3.8022,3.8022,0,3.8108,3.8124,3.8093,3.8102,3.812,3.8093,3.8112,3.8101,3.8091,3.8098,3.8069,3.8077,3.8047,3.8051,3.8034,3.8049,3.8048,3.8041,3.8037,3.8044,3.8046,3.8045,3.8042,3.8024,3.8023,3.8023,3.8023,0,3.8176,3.8155,3.817,3.8151,3.8147,3.8161,3.8145,3.8153,3.8139,3.8148,3.8149,3.8126,3.8129,3.8108,3.8107,3.8095,3.812,3.8108,3.8123,3.812,3.8146,3.8145,3.8231,3.8242,3.8151,3.8152,3.8153,0,3.8214,3.8226,3.8209,3.8212,3.8207,3.8211,3.8212,3.8186,3.8188,3.8178,3.8188,3.8189,3.8189,3.8196,3.818,3.8179,3.8169,3.8199,3.8169,3.8177,3.8171,3.8171,3.8173,3.8206,3.8207,3.8208,3.8209,0,3.8285,3.8275,3.8276,3.8275,3.8276,3.8274,3.827,3.8274,3.8246,3.8249,3.8253,3.8253,3.8253,3.8255,3.8252,3.8244,3.8223,3.8218,3.8224,3.8233,3.8242,3.8239,3.8142,3.8217,3.8216,3.8215,3.8215,3.8214,3.834,3.835,3.834,3.8343,3.8338,3.8335,3.8342,3.8329,3.8332,3.833,3.8315,3.8322,3.8313,3.8306,3.8301,3.8306,3.8292,3.83,3.8302,3.8305,3.831,3.824,3.8305,3.8305,3.8305,3.8304,3.8304,0,3.8411,3.8403,3.8406,3.8402,3.8405,3.8384,3.8379,3.8383,3.8389,3.8383,3.8384,3.8389,3.8391,3.8375,3.8375,3.8383,3.8373,3.8384,3.8384,3.8383,3.8322,3.8318,3.8392,3.8392,3.8392,3.8392,3.8392,3.8392,3.8448,3.8464,3.8453,3.8466,3.8458,3.8466,3.8465,3.8462,3.8457,3.8464,3.8466,3.8456,3.8446,3.8446,3.8447,3.8442,3.8445,3.8459,3.8452,3.8395,3.8387,3.8379,3.8375,3.846,3.846,3.8512,3.8512,3.8513]}]]